Volver al catálogo

STARLINK-35727

ActivoComunicacionesVLEO
NORAD 66281·PAYLOAD·🇺🇸 United States

Lanzado Oct 31, 2025 desde Vandenberg Space Force Base

Loading…

Próximos Pases (próximas 24 horas)

TLE

ActualizadoSource: CelesTrak SupGP

Época: Sep 15, 2026, 02:33 UTC

1 66281C 25247S   26258.10673611  .00013413  00000+0  39633-3 0  2587
2 66281  53.1603  28.7105 0001348  85.4956 332.9245 15.34380890    19

Sigue STARLINK-35727 en tiempo real con AllMySat

Download on the App Store